Vorticity
9 6 6 4 8 16 17 10 9 11 8 6 7 8 10 9 6 4 5 8 8 5 6 5 5 7 5 7 6 4 2 3 6 4 6 6 3 5 5 5 4 7 3 -0 3 1 3 2 3 6 4 6 5 4 4 4 5 4 4 4 4 5 5 4 4 5 4 5 5 4 4 4 4 4 4 4 4 4 4 3 3 3 3 3 3 4 5 6 9 9 7 6 6 8 9 6 3
8 5 4 7 13 10 7 8 6 7 7 8 8 6 7 7 6 3 4 7 7 7 8 8 5 2 1 4 5 3 3 4 6 6 8 5 4 7 6 1 -2 3 2 1 6 6 7 2 7 10 3 5 6 5 4 5 5 5 5 3 5 7 6 5 5 5 5 6 4 4 4 3 3 3 4 3 3 3 2 2 3 3 3 3 3 4 3 3 6 9 10 7 6 7 8 7 5
7 5 2 5 8 4 4 6 3 5 9 14 11 6 4 1 3 6 9 10 6 5 5 5 2 -0 2 4 5 6 5 4 4 6 8 6 3 5 6 1 -2 4 4 4 8 5 6 9 11 10 6 7 6 5 4 4 4 5 5 5 7 6 6 5 5 6 6 6 4 4 3 3 3 3 3 3 3 2 3 3 3 4 4 4 4 4 4 3 3 6 10 9 8 7 6 6 6
7 7 4 3 4 3 4 5 3 6 9 12 12 9 7 5 5 6 7 8 7 4 -1 0 -1 1 7 7 8 7 5 5 4 6 6 5 4 2 4 5 1 4 6 5 4 1 5 11 7 5 7 7 5 4 4 4 4 5 5 5 5 5 6 5 5 5 5 5 4 4 4 4 4 3 3 3 4 4 5 5 5 5 5 5 5 4 4 4 2 3 6 8 9 8 5 5 7
7 8 8 5 3 2 2 5 4 5 8 5 9 9 5 6 7 7 5 4 6 3 -2 3 4 2 4 6 8 6 4 5 6 6 3 4 7 4 5 5 2 4 6 5 2 3 6 7 5 6 6 5 5 5 4 5 4 4 4 4 4 4 4 5 5 5 5 4 3 4 4 4 3 3 3 4 5 5 6 6 6 5 6 5 5 6 5 5 4 3 3 5 8 9 8 6 6
4 5 8 7 6 6 2 6 4 4 9 1 3 7 2 4 4 5 6 7 7 3 3 5 5 2 2 7 9 8 5 4 5 5 4 6 7 4 5 4 4 5 4 5 5 4 5 6 5 4 3 4 5 5 4 4 4 4 4 4 4 4 4 5 4 3 2 1 2 3 4 3 2 3 4 5 5 6 5 5 5 5 6 6 7 7 7 7 6 4 3 3 4 7 9 9 5
5 6 8 8 9 9 7 11 11 8 8 1 1 4 2 3 2 3 4 8 9 9 10 9 10 5 3 7 8 11 8 2 2 5 4 5 6 4 5 5 3 3 1 3 4 3 6 6 5 2 2 2 2 2 3 3 4 4 4 5 4 4 4 4 2 1 1 2 4 4 4 2 3 4 5 5 5 4 3 4 4 4 5 5 6 6 6 7 8 8 6 5 3 4 5 9 8
6 7 7 5 5 6 9 12 16 15 10 4 2 3 4 4 6 6 4 7 8 8 6 7 14 6 2 5 5 11 7 1 5 6 4 3 4 5 5 6 4 5 4 3 2 3 4 3 4 4 2 1 2 3 4 5 5 5 6 5 5 5 5 4 3 3 4 5 5 4 4 4 5 5 5 4 3 2 2 4 3 3 3 3 4 3 4 4 6 7 8 9 5 4 4 6 8
7 7 7 4 3 5 8 6 11 16 16 11 7 8 8 6 8 8 7 6 4 5 2 4 11 7 4 4 3 7 5 6 10 6 4 2 2 4 4 5 5 4 3 3 4 4 2 2 4 4 4 5 6 5 4 4 4 6 6 6 5 6 5 5 4 5 6 6 6 6 6 6 6 5 5 3 2 3 3 3 3 2 2 2 2 3 4 4 4 5 7 9 9 7 4 3 4
6 7 7 7 7 7 7 4 4 10 15 14 10 11 10 8 7 6 7 6 7 8 6 6 11 12 5 1 3 5 5 8 7 3 3 3 1 1 2 4 5 2 2 4 4 3 2 3 4 3 5 6 5 3 3 4 5 6 6 6 5 5 5 4 5 6 6 7 8 8 8 8 6 5 4 3 3 3 3 3 4 4 3 3 3 2 4 6 5 5 5 6 10 10 7 5 4
7 5 4 8 11 9 6 5 5 7 11 12 10 11 12 11 6 6 8 5 9 10 8 9 10 12 5 1 5 2 4 7 6 6 5 4 4 2 0 1 4 3 2 2 2 2 1 0 0 -0 1 1 1 1 4 6 6 7 6 5 5 5 4 5 6 6 5 6 7 8 8 8 8 7 5 4 4 4 5 5 6 7 6 5 3 4 7 7 5 6 6 4 7 10 10 7 5
5 3 3 9 12 11 7 6 7 7 9 10 8 9 12 14 6 7 14 9 10 11 9 10 8 9 7 5 5 1 4 6 6 7 6 4 5 4 1 -1 1 3 2 2 3 3 1 -1 -1 1 1 2 4 6 8 9 9 9 7 6 5 4 4 6 5 5 5 6 7 7 8 8 8 9 8 8 8 7 7 6 6 7 7 5 5 9 11 7 5 7 7 6 4 7 10 9 7
2 1 3 7 8 8 6 5 6 6 7 9 8 8 9 10 5 6 14 11 11 16 11 7 9 14 11 6 5 3 4 5 6 8 6 3 4 6 4 2 1 2 3 4 4 4 4 3 3 5 6 7 8 8 9 10 11 11 10 7 4 3 4 7 6 5 5 7 8 7 10 11 8 8 10 11 9 7 11 11 6 6 4 2 6 13 12 6 6 8 9 8 6 5 7 8 9
-3 -0 5 5 7 7 4 4 5 4 5 7 7 8 8 7 6 5 9 7 9 15 12 11 15 16 10 9 9 5 4 6 7 8 7 5 6 7 5 3 2 2 3 4 5 5 4 4 6 8 8 8 6 8 10 9 9 11 10 5 2 3 5 5 6 4 3 6 7 7 11 14 11 8 9 10 6 5 13 18 10 5 3 -0 4 11 11 7 8 8 9 9 8 7 6 6 7
-4 -1 5 2 8 12 9 8 7 5 3 6 6 5 7 7 7 5 4 5 8 9 10 14 16 13 9 12 11 5 6 8 9 8 8 8 6 5 4 3 3 3 3 4 6 5 5 6 8 7 7 6 5 10 11 7 7 8 6 5 4 5 5 5 5 4 3 5 8 9 10 12 13 10 9 8 6 4 9 13 10 5 3 1 2 7 8 8 9 8 9 11 10 8 8 4 2
-1 -0 5 0 4 10 10 11 12 8 3 4 6 4 6 6 5 5 3 4 9 7 8 12 12 12 9 12 13 8 8 9 9 8 9 8 6 6 6 6 8 9 9 7 7 7 9 9 8 6 7 7 9 14 10 6 6 5 4 5 6 7 9 9 8 7 6 6 8 10 10 9 10 10 10 9 6 4 3 5 6 5 5 5 6 6 6 7 7 7 7 10 10 9 9 4 -1
2 3 7 2 0 3 5 10 13 10 5 5 5 5 5 6 6 5 4 7 9 4 6 8 7 10 8 10 13 10 9 10 9 9 9 8 7 8 10 12 13 13 12 9 10 11 9 8 9 9 9 8 10 11 6 4 4 3 4 6 6 8 10 9 9 8 6 7 6 8 9 8 8 9 9 8 7 5 5 7 6 6 6 7 9 9 10 11 9 6 4 4 5 6 7 7 5
3 3 6 3 -1 1 -0 2 10 8 6 7 5 5 6 6 7 5 4 11 10 3 5 7 6 8 8 10 12 10 9 9 9 9 9 8 9 10 11 12 12 12 11 9 9 9 9 10 10 9 7 8 10 6 2 1 1 1 3 5 5 6 8 9 8 7 6 6 6 7 8 8 8 7 7 7 6 6 7 8 7 7 7 7 10 12 13 14 11 8 7 6 7 8 9 9 9
0 3 4 3 -2 2 -0 -2 9 10 6 7 3 5 6 6 8 4 4 14 13 3 3 7 7 8 8 11 12 11 9 8 9 9 10 9 9 9 8 7 6 9 10 8 7 7 9 8 5 4 5 8 7 4 1 -0 0 2 3 4 5 6 7 6 6 6 6 6 6 7 6 7 7 7 7 7 7 7 7 7 8 9 9 10 11 12 11 10 11 10 10 11 10 11 12 12 11
-1 3 -0 -1 -2 3 3 1 12 12 7 7 5 6 6 6 9 7 6 12 11 4 3 6 7 7 9 11 12 11 9 8 9 9 9 9 8 8 8 4 3 8 9 7 6 7 7 4 3 4 4 5 5 4 4 3 4 5 5 5 5 5 6 6 6 6 5 5 5 5 5 6 7 7 7 8 9 9 10 10 10 10 10 12 11 11 11 11 12 11 11 12 10 10 11 13 14
2 4 1 -1 0 7 6 4 14 12 6 7 7 6 6 6 9 10 8 9 9 6 5 5 6 7 10 11 10 12 11 9 10 9 7 7 8 8 8 6 6 10 10 8 6 7 6 4 5 4 3 4 4 4 4 5 5 4 5 5 5 5 6 6 7 7 6 7 6 5 4 4 5 6 7 9 10 10 11 11 10 11 11 11 10 9 9 10 11 11 11 11 10 10 9 12 15
1 2 4 2 2 7 5 6 14 11 3 5 7 6 7 8 10 10 10 13 13 9 8 8 6 6 9 11 8 11 13 10 9 8 6 7 8 8 9 6 5 8 10 9 5 5 5 5 6 3 3 3 2 2 3 4 4 4 4 4 4 4 5 6 8 9 8 8 8 6 4 4 4 4 7 8 8 9 10 10 9 10 11 10 8 7 7 8 9 9 9 9 8 9 9 10 12
-0 -2 1 -0 2 6 4 8 14 5 -2 7 14 9 6 8 11 11 12 17 17 11 9 10 7 4 6 9 8 9 14 13 10 10 8 8 7 7 10 9 5 6 7 8 5 4 7 7 6 3 1 2 3 4 5 5 4 4 4 4 5 5 4 5 7 9 10 10 10 11 11 10 9 9 9 7 7 8 8 9 9 8 8 7 7 6 7 7 8 9 7 7 7 8 9 9 8
-1 -4 0 -3 1 6 3 9 11 -1 2 18 20 11 6 7 11 13 13 14 13 9 8 9 6 5 5 7 9 8 12 14 13 12 11 8 6 7 10 12 11 10 8 6 5 6 8 8 6 5 4 4 5 6 6 7 7 6 6 5 6 5 5 5 6 9 10 10 10 11 12 11 11 11 9 8 7 8 8 8 7 7 7 6 7 7 7 7 7 8 8 8 7 7 8 9 9
0 -4 1 -2 2 7 3 11 10 -0 11 20 15 12 9 8 9 10 11 10 10 9 9 9 9 8 8 7 7 7 9 13 14 13 13 10 6 7 9 11 13 13 11 7 6 8 8 7 7 6 5 5 4 5 5 5 6 7 7 7 5 4 5 6 7 9 10 8 8 8 8 8 8 8 8 9 8 7 7 6 6 6 6 7 7 7 8 8 8 8 9 9 10 9 7 8 8
4 0 1 1 3 6 2 10 10 5 16 10 5 13 9 7 8 5 6 5 8 11 9 9 12 12 11 10 8 8 7 10 14 13 15 13 9 10 10 10 12 11 10 9 9 9 7 5 6 6 5 5 4 3 4 4 5 6 8 9 7 4 4 7 8 8 9 8 7 7 7 7 7 7 7 8 8 7 5 5 5 5 6 7 7 8 8 8 9 8 8 9 10 9 8 7 7
6 3 2 4 5 7 5 8 9 10 15 3 1 9 5 6 7 5 6 3 4 10 10 7 9 11 11 12 10 8 8 8 11 12 13 13 11 10 10 10 10 9 9 9 8 6 6 6 5 4 3 4 4 4 4 4 5 6 7 10 10 9 8 9 9 8 8 9 9 7 7 7 7 7 7 8 7 6 5 5 5 5 5 6 6 7 8 7 8 8 8 8 8 9 9 8 7
5 5 4 7 6 5 4 9 12 10 12 6 3 7 5 5 4 4 5 3 4 5 8 8 7 9 10 12 12 10 9 8 8 10 11 11 9 8 8 10 10 8 6 5 5 4 4 4 3 4 3 3 4 4 5 5 6 6 6 8 8 9 9 7 7 7 7 8 8 6 6 6 6 6 6 7 6 6 6 5 5 5 5 5 5 5 6 6 6 8 8 7 7 7 8 8 8
3 1 2 5 4 4 5 10 13 8 8 4 1 6 7 6 8 11 6 3 7 6 5 7 5 5 5 9 13 13 9 7 7 7 8 8 9 8 7 8 7 6 5 4 4 3 3 2 2 3 3 3 3 4 4 5 5 6 6 7 8 8 8 6 6 8 7 6 6 5 6 6 6 6 6 6 6 5 5 5 5 5 5 4 4 4 5 5 5 6 6 5 5 5 6 6 5
3 -2 3 7 1 3 8 11 11 5 3 1 0 5 5 3 7 16 15 6 10 12 5 6 10 7 4 5 11 16 12 6 6 6 7 8 7 7 7 6 6 4 4 4 3 3 3 3 3 3 4 4 4 4 4 4 4 6 8 8 9 8 7 7 7 8 7 6 5 4 4 4 5 5 5 4 4 5 4 4 4 4 5 4 4 4 4 4 4 4 4 4 4 4 4 4 4
4 1 7 7 2 11 17 11 7 1 1 5 5 5 3 3 5 11 17 10 9 15 8 5 8 7 9 7 7 17 17 8 6 7 6 7 7 6 7 7 7 5 4 5 5 5 4 3 4 4 6 6 6 6 5 5 4 8 11 7 6 6 7 8 5 6 6 5 4 4 4 4 4 4 4 4 3 4 3 3 3 3 3 3 4 4 4 4 4 5 5 4 3 3 3 3 2
5 7 8 9 12 18 14 5 6 8 9 9 6 4 5 9 11 8 12 12 8 10 10 8 4 4 10 10 7 14 19 12 7 9 7 5 7 6 6 8 7 6 5 6 6 6 6 5 6 5 7 8 8 8 6 6 7 11 12 7 6 6 6 5 3 4 5 4 3 3 4 3 3 4 3 3 2 3 3 2 2 2 2 2 3 3 3 3 3 5 5 4 4 4 4 3 3
8 9 7 8 13 11 6 7 10 11 9 7 3 2 3 8 15 11 8 12 10 8 8 10 8 4 6 9 8 10 17 17 8 8 10 7 6 5 5 5 5 6 6 7 7 7 5 4 6 5 5 6 5 7 7 7 8 11 10 5 5 6 4 4 4 5 4 4 6 5 5 4 3 3 4 5 4 4 3 3 3 2 2 2 2 3 2 3 3 3 4 3 4 4 5 4 4
15 15 10 4 7 8 9 16 12 2 -3 0 2 -1 -2 2 13 14 9 8 9 8 6 7 10 7 5 8 9 6 9 14 11 7 8 9 7 5 6 5 4 5 5 6 7 6 5 5 6 4 2 4 6 7 7 8 7 8 8 7 7 7 7 6 4 5 3 5 10 9 9 9 7 7 9 9 8 6 4 3 3 3 4 3 3 3 3 4 4 4 4 3 4 5 5 4 4
0 16 28 14 8 7 4 11 9 0 -3 -1 1 -1 -3 -1 9 13 11 10 5 5 6 5 10 10 10 10 7 7 6 7 10 9 7 8 7 5 6 8 7 5 5 6 7 7 7 7 5 3 4 6 7 6 6 7 7 8 9 9 9 8 8 6 4 6 4 5 9 8 8 8 7 8 8 7 7 6 6 5 5 4 5 5 5 4 4 5 4 4 5 4 5 6 5 4 5
-12 12 33 14 6 6 1 5 4 4 4 -0 0 0 -2 -3 4 9 9 12 7 5 9 7 8 9 10 11 7 6 4 3 7 10 9 7 8 9 6 7 6 4 5 5 7 8 7 7 5 4 5 6 6 7 7 7 6 7 8 8 9 8 8 7 6 7 6 6 6 5 4 4 5 5 5 5 5 6 7 6 5 5 5 5 5 5 5 5 4 4 4 4 4 6 6 5 5
-5 8 15 -1 3 4 -1 3 -2 1 3 -4 -2 1 -0 -2 2 6 4 8 8 5 9 9 9 8 7 8 6 4 4 4 3 6 9 8 7 9 7 7 6 4 5 7 8 9 7 5 5 5 5 6 6 6 6 6 5 5 6 6 7 7 7 6 5 5 5 4 3 3 3 3 4 4 4 5 5 6 6 6 6 6 5 5 5 5 5 4 4 4 4 5 5 5 6 5 6
-0 7 6 -5 -1 -4 -5 -0 -8 -4 1 -4 -2 0 3 2 2 6 2 4 9 5 6 10 10 9 8 6 3 3 7 8 4 3 7 7 6 6 7 8 8 7 8 8 8 8 7 5 6 6 5 6 6 6 5 4 4 4 3 4 4 4 4 4 2 2 2 2 2 2 2 2 2 2 3 4 5 5 5 6 6 7 7 7 7 6 6 5 5 6 5 6 6 6 6 6 6
-0 5 8 -4 -9 -7 -2 -0 -6 -1 2 -1 0 2 5 1 -1 6 2 0 7 4 5 13 12 8 8 6 5 4 5 8 7 4 4 6 6 4 5 7 6 8 10 11 9 8 8 6 5 5 5 6 4 3 4 3 3 2 2 2 1 1 2 2 2 1 1 2 2 2 3 3 3 3 3 2 3 4 4 4 4 5 7 7 8 8 7 7 7 7 6 6 6 6 7 7 7
3 3 13 5 -9 -3 1 -3 2 5 -1 -3 -2 2 4 -4 -6 1 1 1 3 -1 5 16 14 11 8 5 8 7 5 7 6 6 3 4 7 4 3 6 5 7 9 11 10 9 9 6 5 5 5 6 4 3 3 2 2 1 1 1 1 2 2 2 3 3 3 4 3 4 4 3 3 3 3 2 2 3 3 4 3 4 5 6 8 9 9 9 8 8 7 6 6 6 7 7 8
4 -2 15 17 -4 -3 -1 -7 0 1 -2 -4 -5 7 9 -4 -5 0 1 5 3 -5 3 15 12 12 14 9 10 10 7 6 6 9 7 4 7 4 2 4 5 5 6 8 10 10 8 5 4 4 5 5 4 3 3 1 2 2 2 2 3 2 2 3 3 3 4 4 3 3 3 3 3 3 3 2 2 3 3 3 3 3 6 8 8 9 10 9 8 8 8 7 5 5 6 7 8
3 -3 13 23 0 -5 1 -2 -3 -3 2 -1 -1 15 6 -8 2 1 -3 4 3 -4 4 16 11 7 13 12 14 15 10 8 7 10 10 7 6 4 3 5 5 4 4 6 8 8 7 6 5 4 5 5 4 3 3 3 2 2 2 3 2 2 2 2 2 2 2 2 2 2 3 3 3 3 3 3 3 3 3 4 4 4 6 9 8 9 10 8 8 8 7 6 5 5 6 7 7
1 -3 11 22 3 -5 1 1 -1 -1 2 -3 -1 9 -2 0 13 -0 -5 5 2 -1 8 18 12 4 7 10 11 14 16 14 10 9 9 9 7 5 6 6 5 3 4 4 5 6 7 6 5 4 4 4 4 3 2 2 2 2 3 2 2 2 2 2 0 1 0 1 2 2 3 4 4 4 4 4 4 4 4 4 4 5 8 10 9 9 9 9 8 7 6 5 4 5 5 6 6
2 -1 11 18 4 -4 -3 -4 -2 -2 -6 -7 -1 2 4 16 11 -3 6 12 3 4 13 14 7 1 4 5 4 7 13 16 16 14 11 8 6 5 5 5 4 2 2 4 4 5 6 6 4 3 3 2 2 2 2 2 2 2 2 2 2 1 0 1 1 1 1 1 2 1 4 6 7 8 6 6 5 5 6 5 4 6 9 9 8 10 10 10 9 7 6 5 4 5 5 6 7
5 3 10 13 2 -3 -3 -6 -3 -3 -6 -2 -2 -5 12 22 5 4 15 9 5 7 8 4 -0 1 1 1 5 5 5 9 14 16 15 12 8 6 6 5 5 4 4 4 4 5 5 5 5 2 2 2 2 2 1 2 2 2 3 2 3 2 1 1 1 2 1 -0 2 3 4 8 10 10 8 7 7 7 7 5 5 8 9 8 8 10 11 10 10 7 6 5 4 5 5 5 6
6 7 7 7 1 -4 -0 -2 -3 -1 -2 2 2 -3 12 14 -2 5 12 11 16 9 1 2 2 5 2 -2 2 3 2 2 5 10 12 14 12 9 7 6 7 7 7 6 5 7 6 4 5 5 5 4 3 4 3 5 7 6 5 3 3 3 2 1 2 1 -0 2 8 9 8 9 12 11 8 8 8 8 7 6 6 9 10 8 7 9 10 10 9 7 5 4 4 5 4 4 5
3 6 4 3 1 -4 0 1 -2 2 -1 1 7 -1 4 9 2 5 7 12 17 8 5 8 5 6 4 2 1 -1 2 1 4 12 11 10 11 11 11 10 10 7 6 9 6 6 6 5 5 4 4 4 3 4 4 4 5 5 4 3 4 4 3 4 5 5 7 12 14 12 10 10 11 10 9 9 8 6 6 6 8 12 11 8 6 7 9 9 8 6 5 4 5 5 3 3 4
1 5 5 2 1 -2 0 3 1 5 1 1 6 -3 2 18 12 1 -2 -3 -0 1 4 5 7 4 0 8 7 -1 4 3 2 15 19 14 11 13 13 10 9 7 4 6 7 8 7 6 6 5 5 5 4 4 5 5 6 7 8 8 10 11 12 13 13 14 16 15 12 9 9 9 9 9 8 7 6 5 6 7 10 12 9 7 6 6 8 9 8 6 5 4 5 4 2 1 3
4 6 5 2 1 -2 1 3 2 5 1 -1 3 -2 4 16 11 5 3 0 5 8 2 3 13 5 -5 9 9 -1 8 6 -1 10 21 22 16 14 14 8 8 9 5 5 6 8 10 10 12 12 11 10 8 8 8 8 9 10 12 14 16 17 17 17 17 16 14 10 8 7 7 8 8 8 7 6 6 6 6 7 10 10 8 6 6 6 9 9 7 6 5 5 5 4 2 1 2
5 7 6 5 1 -2 0 -0 0 6 3 0 1 -2 2 7 9 13 8 3 12 10 -3 1 14 6 -6 2 4 2 8 4 1 10 16 20 21 18 12 9 12 13 10 9 8 7 9 10 10 10 11 11 9 8 7 8 10 12 15 15 16 16 16 15 13 12 11 10 11 10 8 8 8 7 7 6 6 6 6 8 9 9 7 7 6 6 8 7 6 6 5 5 6 5 2 1 2
2 8 6 7 3 -2 -2 -5 -3 6 8 5 0 -3 -2 -10 -14 -5 -1 4 8 -1 -7 0 10 9 3 3 6 10 8 1 4 11 9 12 21 22 14 9 11 13 10 7 4 3 3 5 7 8 8 7 7 7 8 10 12 13 12 10 9 11 10 9 7 6 9 12 13 12 9 8 8 7 7 6 5 5 6 7 8 7 7 7 6 6 6 6 6 6 6 6 6 6 4 3 4
1 7 4 7 7 1 -3 -6 -4 4 7 7 2 -4 -6 -10 -13 -6 0 5 1 -3 7 10 5 8 7 4 8 8 3 1 6 9 5 5 13 19 19 12 6 5 6 4 2 3 5 8 10 8 8 9 9 9 9 10 12 10 8 7 8 11 9 5 3 3 5 8 12 13 12 10 9 7 7 6 5 5 8 8 7 7 6 6 7 6 5 5 6 6 6 5 6 6 5 5 5
1 7 5 7 8 3 -0 -5 -4 1 2 4 3 -3 -6 -6 -0 3 3 7 3 -1 7 10 7 8 1 -2 7 8 3 3 6 6 5 6 10 15 17 14 10 5 2 3 4 6 9 9 8 7 10 11 8 7 8 10 10 7 7 7 5 10 11 6 5 5 2 2 8 13 14 13 10 8 6 7 7 8 10 10 9 7 6 7 6 5 3 5 6 5 5 5 6 5 4 4 5
1 5 7 9 6 3 4 -1 -5 -2 -1 0 1 0 -2 -5 -2 1 3 7 7 3 2 6 12 11 2 4 13 9 2 4 5 2 4 9 14 19 19 13 12 12 10 8 5 6 9 8 8 10 11 9 6 7 9 9 7 5 7 8 3 5 10 8 9 11 3 1 5 9 11 13 13 10 8 7 8 10 11 12 9 6 7 9 5 2 4 6 6 6 6 6 4 3 3 4 5
4 2 8 11 6 4 6 3 -0 -1 -2 -1 0 -1 -1 -2 -2 2 3 3 7 10 6 4 9 11 8 13 15 6 1 5 4 -0 6 11 13 25 30 20 12 11 11 14 12 11 13 12 11 11 9 7 6 7 7 6 6 4 5 7 5 5 9 8 7 7 5 5 7 7 7 11 15 15 12 7 3 7 11 12 10 7 8 10 7 4 5 6 6 7 6 5 4 3 3 4 6
7 4 6 8 7 5 4 3 3 3 0 -0 2 1 -1 -0 1 3 4 4 8 9 1 -2 5 8 7 10 10 3 3 6 -0 -0 11 13 8 16 25 24 24 20 14 16 20 18 15 11 9 8 7 7 6 6 5 4 6 6 5 6 6 4 6 8 5 1 1 5 8 7 6 11 17 16 11 5 -1 0 8 12 11 9 7 8 9 7 7 5 5 7 7 6 5 3 4 7 8
6 7 8 9 9 7 4 2 -0 0 1 0 1 1 -0 -1 -0 3 5 3 4 3 0 3 5 3 5 8 5 -1 2 4 -2 3 15 13 7 10 13 16 22 24 21 17 16 13 8 6 7 7 8 7 6 5 4 4 5 6 5 4 4 4 3 6 6 1 -1 1 6 9 9 11 14 11 5 3 1 -0 4 9 11 9 5 6 10 9 6 6 7 9 9 5 3 5 8 9 8
7 6 8 9 8 7 5 3 1 1 1 1 1 -2 -1 -1 -4 -1 4 7 8 5 3 5 1 4 18 17 3 -3 1 0 -3 6 16 13 7 6 10 16 15 16 21 19 16 14 11 10 10 7 5 5 5 4 4 4 3 2 2 2 5 7 4 6 10 6 2 1 1 5 11 12 10 7 4 6 7 5 3 5 11 13 7 5 8 10 7 6 9 9 6 4 5 8 8 7 8
Height
5886 5886 5887 5887 5886 5886 5885 5886 5887 5887 5887 5888 5888 5887 5888 5887 5887 5888 5887 5887 5887 5888 5889 5889 5889 5889 5888 5889 5889 5889 5889 5891 5892 5894 5895 5896 5896 5896 5896 5895 5895 5895 5896 5896 5896 5897 5898 5899 5899 5900 5901 5902 5902 5903 5904 5904 5905 5906 5907 5907 5907 5907 5907 5907 5907 5908 5908 5909 5909 5909 5910 5910 5910 5910 5910 5910 5910 5911 5911 5911 5911 5911 5910 5910 5909 5909 5908 5908 5908 5908 5907 5907 5907 5907 5906 5906 5906
5888 5887 5888 5889 5889 5889 5888 5887 5887 5887 5888 5889 5889 5888 5888 5889 5889 5889 5889 5889 5888 5889 5891 5891 5891 5890 5890 5890 5891 5890 5891 5892 5893 5894 5896 5897 5897 5897 5897 5897 5897 5897 5897 5898 5898 5899 5899 5900 5901 5902 5902 5902 5903 5904 5905 5906 5906 5907 5907 5908 5908 5907 5907 5907 5907 5908 5909 5909 5909 5910 5910 5910 5910 5910 5910 5910 5911 5911 5911 5911 5910 5910 5910 5910 5910 5909 5908 5907 5908 5908 5908 5907 5906 5906 5905 5905 5905
5889 5889 5889 5890 5891 5891 5889 5888 5887 5887 5889 5890 5889 5889 5889 5888 5889 5889 5890 5890 5890 5890 5891 5891 5892 5892 5891 5891 5891 5892 5892 5893 5894 5894 5896 5898 5897 5898 5898 5898 5898 5898 5898 5899 5900 5900 5901 5902 5902 5903 5903 5904 5904 5905 5906 5907 5907 5908 5908 5908 5908 5908 5907 5907 5908 5908 5909 5909 5910 5910 5910 5910 5910 5910 5910 5910 5910 5910 5910 5910 5910 5910 5910 5910 5910 5909 5908 5907 5907 5908 5908 5907 5906 5905 5905 5905 5906
5891 5890 5890 5890 5890 5890 5889 5889 5889 5889 5890 5891 5891 5890 5889 5888 5889 5890 5890 5891 5891 5892 5892 5891 5892 5893 5893 5893 5892 5893 5894 5894 5894 5894 5897 5899 5898 5898 5899 5899 5899 5899 5899 5900 5901 5901 5902 5903 5904 5905 5904 5905 5906 5907 5908 5908 5908 5908 5908 5908 5908 5907 5907 5907 5908 5908 5909 5909 5909 5910 5910 5909 5910 5910 5910 5910 5910 5910 5910 5910 5910 5910 5909 5909 5909 5909 5909 5908 5908 5908 5909 5907 5906 5905 5905 5906 5908
5893 5892 5891 5891 5891 5891 5891 5892 5892 5892 5892 5891 5892 5891 5890 5890 5890 5891 5891 5891 5892 5893 5893 5893 5893 5893 5894 5895 5894 5895 5895 5895 5895 5894 5897 5900 5900 5899 5900 5900 5900 5900 5901 5902 5902 5903 5903 5904 5905 5905 5905 5906 5907 5908 5908 5909 5909 5908 5908 5908 5907 5907 5907 5908 5908 5908 5908 5909 5909 5909 5909 5909 5909 5909 5910 5910 5910 5910 5910 5910 5910 5909 5909 5909 5909 5909 5909 5909 5909 5909 5909 5907 5906 5905 5906 5908 5909
5894 5893 5894 5893 5893 5893 5894 5894 5894 5894 5893 5892 5892 5892 5891 5891 5891 5891 5891 5892 5893 5893 5894 5894 5894 5894 5895 5896 5896 5896 5896 5896 5896 5896 5897 5900 5901 5900 5900 5900 5901 5901 5903 5903 5904 5904 5905 5905 5906 5906 5906 5906 5906 5907 5908 5908 5908 5908 5908 5908 5908 5908 5908 5908 5908 5908 5908 5908 5908 5908 5908 5908 5909 5909 5909 5910 5910 5910 5910 5910 5909 5909 5909 5909 5909 5909 5909 5909 5909 5909 5909 5908 5906 5905 5907 5909 5909
5895 5895 5895 5895 5895 5895 5895 5896 5896 5895 5894 5892 5892 5893 5893 5893 5893 5892 5893 5893 5894 5894 5895 5895 5895 5895 5895 5896 5897 5897 5897 5897 5897 5897 5898 5901 5902 5901 5901 5901 5902 5902 5904 5905 5905 5905 5906 5906 5906 5906 5906 5905 5906 5907 5908 5908 5908 5907 5907 5908 5908 5908 5908 5908 5908 5908 5908 5908 5908 5908 5908 5908 5909 5909 5909 5910 5910 5910 5910 5909 5909 5909 5909 5909 5909 5909 5909 5909 5909 5909 5909 5908 5907 5906 5907 5909 5908
5896 5897 5897 5897 5897 5897 5897 5897 5897 5896 5895 5893 5893 5893 5893 5893 5893 5893 5894 5894 5894 5895 5895 5895 5896 5895 5896 5897 5897 5898 5899 5898 5898 5899 5899 5901 5902 5902 5902 5902 5903 5903 5904 5905 5906 5906 5906 5906 5906 5906 5905 5905 5906 5907 5907 5907 5907 5907 5907 5908 5908 5908 5908 5908 5908 5908 5908 5908 5908 5908 5908 5909 5909 5910 5910 5910 5910 5909 5910 5909 5909 5909 5909 5909 5909 5909 5909 5909 5909 5909 5909 5908 5907 5907 5907 5908 5907
5898 5898 5898 5898 5898 5897 5897 5897 5897 5896 5896 5895 5894 5895 5894 5894 5894 5894 5894 5894 5895 5895 5895 5896 5896 5896 5896 5897 5897 5898 5900 5900 5900 5900 5901 5902 5903 5904 5904 5904 5904 5904 5904 5905 5905 5906 5906 5906 5905 5905 5905 5906 5906 5906 5907 5907 5907 5907 5908 5908 5908 5908 5907 5907 5907 5907 5908 5908 5908 5908 5909 5909 5910 5910 5910 5910 5909 5909 5909 5909 5909 5909 5909 5909 5909 5909 5908 5908 5908 5908 5908 5908 5907 5907 5906 5907 5907
5899 5899 5899 5899 5899 5899 5898 5898 5897 5897 5897 5896 5896 5896 5896 5895 5894 5894 5894 5894 5895 5895 5896 5896 5896 5896 5897 5898 5898 5899 5900 5901 5901 5901 5902 5903 5904 5905 5905 5906 5905 5905 5905 5905 5906 5906 5907 5907 5907 5907 5907 5907 5907 5907 5907 5907 5908 5908 5908 5908 5907 5907 5907 5907 5907 5907 5907 5908 5908 5908 5909 5909 5909 5910 5910 5909 5909 5909 5909 5909 5909 5909 5909 5909 5908 5908 5908 5908 5907 5907 5907 5907 5907 5906 5906 5906 5906
5900 5900 5900 5900 5900 5899 5899 5898 5898 5898 5897 5897 5897 5897 5896 5895 5895 5894 5895 5895 5895 5896 5896 5896 5896 5897 5897 5898 5899 5900 5901 5902 5902 5902 5903 5904 5904 5905 5906 5907 5907 5907 5907 5907 5907 5908 5909 5909 5909 5909 5909 5909 5909 5909 5908 5908 5908 5908 5908 5908 5907 5907 5907 5907 5907 5907 5907 5908 5908 5908 5908 5909 5909 5909 5909 5909 5909 5909 5909 5910 5909 5909 5908 5908 5907 5907 5907 5907 5907 5906 5906 5906 5906 5906 5906 5905 5905
5901 5901 5901 5901 5901 5900 5900 5899 5899 5898 5898 5897 5897 5897 5896 5895 5894 5895 5896 5896 5896 5896 5896 5897 5897 5897 5897 5898 5899 5900 5901 5902 5903 5903 5903 5904 5904 5905 5906 5907 5908 5908 5908 5909 5909 5909 5910 5910 5910 5910 5910 5910 5910 5910 5909 5909 5908 5908 5908 5907 5907 5907 5907 5907 5907 5907 5908 5908 5908 5908 5908 5908 5909 5909 5909 5909 5909 5910 5910 5910 5909 5909 5908 5907 5907 5907 5907 5907 5907 5906 5905 5905 5905 5905 5905 5904 5904
5901 5901 5901 5901 5901 5901 5901 5900 5899 5899 5898 5898 5897 5897 5896 5895 5895 5895 5896 5896 5896 5897 5897 5897 5898 5898 5898 5898 5899 5900 5901 5902 5904 5904 5904 5904 5905 5905 5906 5907 5908 5909 5909 5909 5909 5910 5910 5910 5910 5910 5910 5911 5911 5910 5909 5909 5908 5908 5908 5908 5908 5908 5908 5908 5908 5908 5908 5908 5908 5908 5908 5908 5908 5908 5909 5910 5910 5910 5909 5909 5909 5909 5908 5907 5907 5907 5907 5907 5907 5906 5905 5904 5904 5904 5904 5904 5903
5901 5902 5902 5901 5901 5902 5901 5901 5900 5900 5899 5898 5898 5897 5897 5896 5896 5896 5897 5897 5897 5897 5897 5897 5898 5899 5899 5899 5899 5900 5901 5903 5904 5905 5905 5905 5905 5906 5906 5907 5908 5908 5908 5909 5909 5909 5909 5909 5909 5910 5910 5910 5910 5910 5909 5909 5909 5909 5909 5909 5909 5909 5909 5909 5909 5909 5909 5908 5908 5908 5909 5909 5909 5909 5909 5910 5910 5910 5909 5909 5909 5908 5908 5907 5907 5907 5907 5907 5907 5906 5905 5904 5903 5903 5903 5904 5903
5902 5902 5902 5901 5902 5902 5902 5901 5901 5901 5899 5899 5899 5898 5898 5898 5898 5897 5898 5898 5898 5898 5897 5898 5899 5899 5900 5900 5899 5900 5901 5903 5904 5904 5905 5905 5906 5906 5906 5907 5907 5908 5908 5908 5908 5909 5909 5909 5909 5910 5910 5910 5910 5910 5910 5910 5910 5910 5910 5910 5909 5909 5909 5909 5909 5909 5909 5909 5909 5909 5909 5909 5909 5909 5910 5910 5910 5910 5910 5909 5909 5908 5908 5908 5907 5907 5907 5907 5906 5906 5905 5904 5903 5903 5903 5904 5905
5902 5903 5902 5901 5902 5903 5902 5902 5902 5901 5900 5900 5900 5900 5899 5899 5899 5899 5899 5899 5899 5898 5898 5899 5900 5900 5901 5901 5900 5900 5902 5903 5904 5904 5905 5905 5906 5906 5907 5907 5908 5908 5908 5909 5909 5909 5910 5910 5910 5910 5911 5911 5911 5911 5911 5911 5911 5911 5911 5910 5910 5910 5910 5910 5910 5910 5909 5909 5909 5909 5909 5909 5909 5909 5909 5910 5911 5910 5910 5909 5908 5908 5908 5908 5908 5907 5907 5906 5906 5906 5905 5905 5904 5903 5902 5903 5904
5902 5902 5902 5901 5901 5902 5902 5902 5903 5902 5901 5901 5901 5901 5901 5900 5900 5900 5900 5900 5900 5900 5900 5900 5900 5901 5902 5902 5901 5901 5902 5903 5904 5905 5905 5906 5906 5907 5907 5908 5908 5909 5909 5909 5910 5910 5910 5910 5911 5911 5911 5911 5911 5911 5911 5911 5911 5911 5911 5911 5911 5910 5910 5911 5911 5910 5910 5910 5910 5909 5909 5909 5909 5909 5909 5910 5911 5911 5910 5909 5908 5908 5908 5908 5907 5907 5907 5906 5906 5906 5906 5905 5904 5904 5903 5902 5901
5901 5901 5902 5901 5901 5902 5903 5903 5903 5903 5902 5902 5902 5902 5901 5901 5901 5901 5901 5901 5901 5901 5901 5900 5901 5901 5902 5903 5902 5902 5903 5904 5904 5905 5905 5906 5907 5907 5908 5909 5909 5909 5909 5910 5910 5910 5911 5911 5911 5911 5911 5911 5911 5911 5911 5912 5912 5912 5912 5911 5911 5911 5911 5911 5911 5911 5911 5911 5910 5910 5910 5910 5909 5909 5910 5910 5910 5910 5910 5909 5909 5908 5908 5908 5907 5907 5906 5906 5905 5905 5905 5905 5905 5904 5903 5902 5901
5901 5901 5902 5901 5901 5902 5902 5903 5904 5904 5904 5903 5903 5903 5902 5901 5901 5902 5902 5903 5902 5901 5901 5901 5901 5902 5902 5903 5903 5903 5904 5904 5905 5905 5905 5906 5907 5908 5908 5909 5909 5910 5910 5910 5910 5910 5911 5911 5911 5912 5912 5911 5911 5912 5912 5912 5912 5912 5912 5912 5912 5912 5912 5912 5912 5912 5912 5911 5910 5910 5910 5910 5910 5910 5910 5910 5910 5910 5910 5909 5908 5908 5908 5908 5907 5907 5906 5906 5905 5905 5905 5905 5904 5904 5903 5902 5901
5901 5902 5902 5901 5902 5902 5902 5903 5904 5905 5905 5904 5904 5903 5902 5901 5901 5903 5903 5903 5903 5902 5902 5902 5902 5902 5903 5904 5904 5904 5904 5905 5905 5906 5906 5907 5907 5908 5908 5909 5910 5910 5910 5910 5910 5911 5911 5911 5912 5912 5912 5912 5912 5912 5913 5913 5913 5913 5913 5913 5913 5913 5912 5912 5912 5912 5912 5911 5911 5911 5910 5910 5911 5911 5911 5910 5910 5910 5910 5909 5908 5908 5908 5908 5907 5907 5906 5906 5905 5905 5905 5904 5904 5903 5902 5902 5901
5901 5902 5902 5902 5903 5902 5903 5903 5904 5905 5905 5905 5905 5904 5903 5902 5902 5903 5904 5904 5903 5903 5903 5903 5903 5903 5903 5904 5905 5905 5905 5905 5906 5906 5907 5907 5908 5908 5909 5909 5910 5910 5910 5910 5911 5912 5912 5912 5912 5912 5912 5913 5913 5913 5914 5914 5914 5914 5914 5914 5913 5913 5913 5912 5912 5912 5912 5912 5911 5911 5911 5910 5911 5911 5911 5911 5910 5911 5910 5910 5909 5909 5908 5908 5908 5907 5907 5906 5906 5905 5905 5904 5904 5903 5902 5902 5901
5901 5902 5902 5903 5903 5903 5903 5903 5904 5906 5906 5906 5905 5904 5903 5903 5903 5904 5904 5904 5903 5903 5903 5904 5904 5904 5904 5905 5905 5905 5905 5906 5906 5907 5908 5908 5909 5909 5909 5910 5910 5910 5911 5911 5912 5912 5913 5913 5913 5913 5913 5914 5914 5914 5915 5915 5914 5914 5914 5914 5914 5913 5913 5913 5913 5912 5912 5912 5911 5911 5911 5911 5911 5910 5911 5911 5911 5911 5911 5910 5909 5909 5909 5909 5908 5907 5907 5906 5906 5905 5905 5905 5904 5903 5903 5902 5902
5901 5902 5903 5903 5904 5904 5903 5903 5904 5906 5906 5905 5905 5904 5903 5903 5904 5904 5904 5904 5904 5903 5904 5905 5905 5905 5905 5905 5906 5906 5906 5906 5907 5907 5908 5909 5909 5909 5910 5911 5911 5911 5912 5912 5913 5913 5914 5914 5914 5915 5915 5915 5915 5915 5916 5915 5915 5915 5915 5915 5914 5914 5914 5913 5913 5913 5912 5912 5912 5911 5911 5911 5910 5910 5911 5911 5911 5911 5911 5910 5910 5909 5909 5908 5908 5907 5907 5906 5906 5906 5905 5905 5904 5903 5903 5903 5902
5902 5903 5904 5904 5904 5905 5904 5903 5904 5906 5906 5905 5905 5905 5904 5904 5904 5904 5904 5904 5904 5904 5904 5905 5905 5906 5905 5905 5906 5906 5907 5907 5907 5908 5908 5908 5909 5910 5911 5912 5912 5912 5912 5913 5914 5914 5915 5915 5915 5916 5916 5916 5916 5916 5916 5916 5916 5916 5916 5915 5915 5915 5914 5914 5913 5913 5913 5913 5912 5912 5911 5911 5910 5910 5911 5911 5911 5911 5911 5910 5910 5909 5909 5908 5907 5907 5907 5906 5906 5906 5905 5905 5904 5904 5903 5903 5903
5902 5903 5904 5905 5905 5905 5904 5903 5904 5906 5906 5906 5906 5905 5905 5904 5905 5905 5905 5905 5905 5905 5905 5905 5906 5906 5906 5906 5906 5907 5907 5908 5908 5909 5909 5909 5910 5911 5912 5912 5912 5912 5913 5914 5914 5915 5915 5916 5916 5917 5917 5917 5917 5918 5918 5918 5917 5917 5916 5916 5916 5915 5915 5915 5914 5914 5914 5913 5913 5912 5912 5911 5911 5910 5911 5911 5911 5911 5911 5910 5910 5909 5909 5908 5907 5907 5907 5906 5906 5906 5905 5905 5904 5904 5904 5903 5903
5901 5902 5904 5904 5905 5906 5904 5903 5904 5905 5906 5906 5906 5906 5906 5905 5906 5906 5906 5906 5906 5906 5906 5905 5906 5907 5907 5907 5907 5907 5908 5908 5909 5909 5910 5910 5910 5911 5912 5913 5913 5913 5913 5914 5914 5915 5916 5916 5917 5918 5918 5918 5918 5919 5918 5918 5918 5918 5917 5916 5916 5916 5916 5915 5915 5914 5914 5914 5913 5913 5912 5911 5911 5911 5911 5911 5911 5911 5911 5911 5910 5910 5909 5908 5908 5907 5907 5907 5906 5906 5905 5905 5904 5904 5903 5903 5902
5901 5902 5903 5904 5904 5905 5904 5903 5904 5905 5906 5906 5906 5906 5906 5907 5907 5908 5908 5907 5907 5907 5907 5906 5906 5907 5907 5908 5908 5908 5908 5909 5910 5910 5910 5911 5911 5912 5913 5914 5914 5914 5914 5914 5915 5915 5916 5917 5918 5918 5919 5919 5919 5919 5919 5919 5919 5918 5917 5917 5916 5916 5916 5915 5915 5915 5915 5914 5914 5914 5913 5913 5912 5912 5912 5912 5911 5911 5911 5911 5911 5910 5909 5909 5908 5908 5907 5907 5906 5906 5905 5905 5904 5904 5903 5903 5902
5901 5902 5903 5903 5904 5904 5904 5904 5904 5905 5906 5905 5905 5907 5907 5908 5909 5909 5909 5909 5909 5909 5908 5908 5907 5907 5908 5908 5908 5908 5909 5910 5910 5911 5911 5912 5912 5913 5914 5914 5915 5915 5915 5915 5915 5916 5917 5917 5918 5919 5919 5919 5919 5919 5919 5919 5919 5918 5918 5917 5917 5916 5916 5916 5915 5915 5915 5915 5915 5915 5915 5914 5914 5913 5913 5912 5912 5912 5912 5911 5911 5910 5910 5909 5909 5908 5908 5908 5907 5906 5906 5905 5904 5904 5903 5903 5902
5900 5902 5903 5903 5904 5904 5904 5904 5904 5905 5905 5905 5906 5907 5908 5909 5910 5910 5910 5910 5910 5909 5909 5909 5908 5908 5909 5909 5909 5909 5909 5910 5910 5911 5912 5912 5913 5913 5914 5914 5915 5915 5915 5915 5916 5916 5917 5917 5918 5918 5919 5919 5919 5920 5920 5920 5919 5919 5918 5917 5917 5917 5917 5916 5916 5916 5916 5916 5916 5915 5915 5915 5914 5914 5913 5913 5912 5912 5912 5912 5911 5910 5910 5909 5909 5909 5909 5908 5908 5907 5906 5905 5905 5904 5903 5903 5902
5899 5901 5901 5902 5903 5903 5904 5904 5904 5904 5905 5905 5906 5908 5909 5910 5910 5911 5911 5911 5911 5910 5910 5910 5909 5909 5909 5910 5910 5910 5910 5910 5910 5911 5912 5912 5913 5914 5914 5915 5915 5916 5916 5916 5916 5916 5917 5917 5918 5919 5919 5919 5919 5919 5919 5920 5920 5919 5919 5918 5918 5918 5917 5917 5917 5917 5917 5917 5916 5915 5914 5914 5914 5914 5913 5912 5912 5912 5912 5912 5911 5910 5910 5910 5909 5909 5909 5909 5908 5907 5907 5906 5905 5904 5903 5902 5901
5898 5900 5900 5901 5902 5903 5903 5904 5904 5904 5905 5905 5906 5907 5908 5909 5911 5911 5911 5911 5911 5911 5911 5911 5910 5910 5910 5910 5910 5910 5910 5910 5911 5911 5912 5913 5914 5914 5915 5916 5916 5916 5916 5916 5917 5917 5917 5918 5918 5919 5919 5919 5919 5919 5919 5919 5919 5919 5919 5919 5918 5918 5918 5918 5917 5917 5917 5917 5916 5915 5914 5914 5914 5914 5913 5913 5913 5912 5912 5912 5911 5910 5910 5910 5909 5909 5909 5908 5908 5907 5906 5906 5905 5904 5903 5902 5901
5897 5899 5900 5900 5901 5903 5904 5904 5905 5905 5905 5905 5906 5906 5907 5909 5911 5911 5911 5911 5911 5911 5911 5911 5911 5911 5911 5911 5911 5911 5911 5911 5911 5912 5912 5913 5914 5915 5915 5916 5916 5917 5917 5917 5917 5918 5918 5918 5919 5919 5919 5919 5919 5919 5919 5919 5919 5919 5918 5919 5919 5918 5918 5918 5917 5917 5916 5916 5916 5915 5915 5914 5915 5914 5914 5914 5913 5913 5912 5912 5911 5911 5910 5910 5909 5909 5908 5908 5907 5907 5906 5905 5905 5904 5903 5903 5902
5896 5898 5899 5900 5901 5902 5903 5904 5905 5905 5905 5905 5906 5906 5907 5909 5911 5911 5912 5912 5912 5912 5912 5912 5912 5912 5912 5912 5912 5912 5912 5912 5912 5913 5913 5914 5914 5915 5915 5916 5916 5917 5917 5917 5918 5918 5918 5919 5919 5919 5919 5919 5919 5919 5919 5919 5919 5919 5919 5918 5918 5918 5918 5918 5918 5917 5916 5916 5916 5916 5915 5915 5915 5915 5914 5914 5913 5913 5913 5912 5911 5911 5910 5909 5909 5909 5908 5907 5906 5906 5905 5905 5904 5903 5902 5902 5901
5895 5898 5898 5898 5900 5901 5902 5904 5905 5906 5906 5906 5907 5907 5908 5909 5911 5912 5912 5913 5913 5913 5913 5913 5912 5912 5912 5912 5912 5912 5912 5913 5913 5914 5914 5915 5915 5915 5916 5916 5916 5917 5917 5917 5918 5918 5918 5919 5919 5919 5919 5919 5919 5919 5919 5919 5919 5919 5919 5919 5918 5918 5918 5918 5918 5917 5916 5916 5916 5915 5915 5915 5915 5914 5914 5914 5913 5913 5912 5911 5911 5911 5910 5909 5909 5908 5907 5906 5905 5905 5905 5904 5903 5902 5901 5901 5900
5896 5899 5899 5898 5898 5900 5901 5904 5905 5906 5906 5907 5908 5909 5909 5910 5911 5912 5913 5913 5913 5913 5913 5913 5913 5912 5912 5912 5912 5912 5913 5913 5914 5914 5915 5915 5916 5916 5916 5917 5917 5917 5917 5917 5918 5918 5918 5918 5919 5919 5919 5919 5919 5919 5919 5919 5918 5919 5919 5919 5918 5918 5919 5918 5918 5918 5917 5915 5915 5915 5915 5915 5915 5914 5914 5914 5913 5912 5911 5910 5910 5910 5909 5908 5908 5907 5906 5905 5904 5904 5903 5903 5902 5901 5900 5899 5899
5896 5899 5899 5898 5898 5899 5901 5903 5904 5905 5906 5907 5909 5909 5910 5910 5911 5912 5913 5913 5913 5913 5913 5913 5913 5913 5912 5912 5912 5912 5913 5913 5914 5915 5915 5915 5916 5916 5916 5916 5917 5917 5917 5917 5918 5918 5918 5918 5918 5918 5919 5919 5919 5919 5919 5918 5918 5918 5918 5918 5918 5918 5918 5918 5917 5918 5917 5916 5916 5916 5916 5915 5915 5914 5914 5913 5913 5912 5911 5911 5910 5909 5908 5907 5907 5906 5905 5904 5903 5902 5902 5901 5900 5900 5899 5898 5897
5894 5897 5898 5896 5896 5897 5899 5901 5903 5905 5906 5907 5908 5909 5910 5910 5911 5912 5913 5913 5913 5913 5913 5913 5913 5913 5912 5912 5912 5912 5912 5913 5914 5914 5915 5915 5915 5915 5915 5916 5916 5916 5917 5917 5917 5917 5917 5917 5917 5917 5918 5918 5918 5919 5918 5918 5918 5918 5918 5917 5917 5917 5917 5917 5917 5917 5917 5916 5916 5916 5915 5915 5914 5914 5914 5913 5912 5911 5911 5910 5909 5908 5907 5906 5906 5905 5904 5903 5902 5901 5901 5900 5899 5899 5898 5897 5896
5892 5895 5897 5895 5894 5895 5897 5899 5901 5903 5905 5907 5908 5908 5909 5910 5911 5911 5912 5912 5913 5913 5912 5912 5912 5912 5912 5912 5912 5912 5912 5912 5913 5913 5914 5914 5915 5915 5915 5915 5916 5916 5916 5916 5917 5917 5917 5917 5917 5917 5917 5917 5917 5918 5918 5918 5918 5918 5917 5917 5917 5916 5916 5916 5916 5916 5916 5916 5916 5915 5915 5915 5915 5914 5913 5913 5912 5911 5910 5909 5908 5907 5906 5905 5904 5903 5902 5902 5901 5900 5899 5899 5898 5897 5896 5896 5894
5890 5893 5895 5895 5893 5893 5895 5898 5900 5901 5903 5905 5906 5907 5908 5909 5910 5911 5911 5911 5912 5912 5912 5911 5911 5911 5911 5911 5911 5911 5911 5912 5912 5913 5913 5914 5914 5915 5915 5915 5915 5915 5916 5916 5916 5916 5916 5916 5916 5916 5916 5916 5916 5917 5917 5918 5918 5918 5917 5917 5917 5916 5915 5915 5915 5915 5915 5915 5915 5915 5915 5915 5914 5914 5913 5912 5911 5910 5909 5908 5908 5907 5906 5904 5903 5902 5901 5900 5899 5898 5897 5897 5896 5895 5895 5894 5893
5887 5890 5893 5894 5893 5893 5895 5897 5899 5900 5901 5903 5904 5905 5906 5907 5909 5909 5910 5911 5911 5911 5911 5910 5911 5911 5910 5910 5910 5910 5910 5911 5911 5912 5912 5913 5914 5915 5915 5915 5915 5915 5915 5915 5915 5915 5915 5915 5915 5916 5916 5916 5916 5917 5917 5917 5917 5917 5917 5917 5916 5916 5915 5914 5914 5914 5914 5914 5914 5914 5914 5913 5913 5912 5912 5911 5910 5909 5908 5907 5907 5906 5905 5904 5902 5901 5899 5898 5897 5896 5895 5894 5894 5893 5893 5892 5891
5885 5888 5891 5893 5893 5894 5895 5896 5897 5898 5899 5901 5902 5903 5904 5906 5907 5908 5909 5909 5910 5910 5910 5909 5910 5910 5910 5909 5909 5909 5909 5910 5910 5911 5911 5912 5913 5913 5914 5914 5914 5914 5915 5914 5914 5915 5915 5915 5915 5915 5916 5916 5916 5916 5916 5916 5916 5916 5916 5916 5916 5915 5914 5914 5913 5913 5913 5913 5913 5912 5912 5912 5911 5911 5910 5909 5909 5908 5907 5907 5906 5905 5904 5902 5901 5899 5897 5896 5895 5894 5893 5892 5892 5891 5890 5889 5889
5883 5886 5890 5892 5893 5894 5894 5894 5895 5896 5897 5899 5900 5901 5902 5904 5905 5906 5907 5908 5908 5908 5908 5908 5909 5909 5909 5909 5909 5908 5908 5908 5909 5910 5910 5911 5911 5911 5912 5912 5912 5913 5913 5913 5913 5914 5914 5914 5915 5915 5915 5915 5915 5915 5915 5915 5915 5915 5915 5915 5915 5914 5914 5913 5912 5912 5911 5911 5911 5910 5910 5910 5909 5909 5908 5908 5907 5906 5906 5905 5904 5902 5901 5899 5898 5896 5895 5894 5893 5892 5891 5890 5890 5889 5888 5887 5887
5881 5885 5889 5891 5891 5892 5892 5893 5893 5894 5896 5898 5899 5899 5900 5901 5903 5904 5905 5905 5906 5907 5907 5907 5907 5908 5908 5908 5908 5908 5907 5907 5907 5908 5909 5909 5909 5910 5910 5910 5911 5911 5912 5912 5912 5913 5913 5913 5914 5914 5914 5914 5914 5914 5914 5914 5914 5914 5914 5914 5914 5913 5913 5912 5911 5911 5910 5910 5909 5909 5908 5908 5908 5907 5906 5906 5905 5904 5903 5902 5901 5900 5898 5897 5895 5894 5893 5892 5891 5890 5889 5888 5888 5887 5887 5886 5885
5880 5885 5888 5889 5889 5890 5891 5891 5892 5893 5895 5895 5896 5897 5897 5898 5901 5903 5902 5903 5904 5905 5906 5906 5906 5906 5907 5907 5907 5907 5907 5907 5906 5906 5906 5907 5908 5908 5908 5909 5909 5910 5911 5911 5911 5911 5912 5912 5912 5912 5912 5912 5913 5913 5913 5913 5913 5913 5912 5912 5912 5911 5911 5910 5909 5909 5909 5908 5907 5907 5906 5906 5905 5905 5904 5903 5902 5901 5900 5899 5898 5897 5896 5895 5894 5893 5892 5891 5890 5889 5888 5887 5887 5886 5885 5884 5883
5881 5885 5887 5887 5888 5888 5889 5889 5890 5891 5891 5891 5893 5895 5895 5896 5899 5900 5901 5901 5902 5903 5904 5905 5905 5905 5906 5906 5906 5906 5906 5906 5906 5905 5905 5905 5905 5906 5906 5907 5907 5908 5909 5909 5909 5910 5910 5910 5910 5910 5910 5910 5911 5911 5911 5911 5911 5911 5910 5910 5909 5909 5908 5907 5907 5907 5906 5906 5905 5904 5904 5903 5902 5902 5901 5900 5899 5898 5898 5897 5896 5896 5895 5894 5893 5892 5891 5890 5889 5888 5887 5886 5885 5884 5883 5882 5881
5881 5884 5885 5885 5886 5886 5887 5887 5888 5887 5887 5888 5891 5893 5893 5894 5896 5898 5899 5900 5901 5901 5902 5904 5904 5905 5905 5905 5905 5905 5905 5905 5905 5904 5904 5903 5903 5903 5904 5905 5906 5906 5906 5907 5908 5908 5908 5908 5908 5908 5908 5908 5908 5909 5909 5909 5908 5908 5908 5908 5907 5906 5905 5905 5904 5904 5903 5903 5902 5901 5901 5900 5900 5899 5898 5898 5897 5896 5895 5895 5894 5893 5893 5892 5891 5890 5889 5888 5887 5886 5885 5884 5883 5882 5881 5879 5878
5879 5881 5881 5883 5883 5883 5884 5884 5885 5883 5882 5886 5890 5892 5891 5891 5892 5895 5898 5899 5900 5900 5901 5902 5903 5904 5904 5904 5904 5904 5904 5904 5903 5903 5903 5902 5901 5901 5902 5903 5904 5904 5904 5905 5905 5905 5905 5906 5906 5906 5906 5906 5906 5907 5906 5906 5906 5906 5905 5905 5905 5904 5903 5902 5902 5901 5900 5900 5899 5898 5898 5897 5897 5896 5896 5895 5894 5893 5893 5892 5892 5891 5890 5889 5888 5887 5886 5885 5885 5884 5883 5882 5881 5880 5879 5877 5876
5874 5876 5878 5879 5879 5880 5880 5880 5880 5878 5879 5885 5889 5890 5889 5888 5890 5894 5896 5898 5899 5899 5899 5900 5902 5903 5904 5904 5903 5903 5903 5902 5902 5901 5901 5901 5900 5900 5900 5901 5901 5902 5902 5902 5903 5903 5903 5903 5904 5904 5905 5905 5905 5904 5904 5904 5904 5904 5903 5903 5902 5901 5900 5900 5899 5898 5898 5897 5896 5896 5895 5895 5894 5894 5893 5892 5891 5891 5890 5889 5889 5888 5887 5886 5885 5884 5884 5883 5882 5881 5881 5880 5879 5878 5876 5875 5874
5868 5870 5873 5874 5874 5875 5875 5875 5876 5875 5878 5884 5887 5887 5885 5884 5889 5892 5893 5895 5896 5897 5897 5898 5900 5901 5902 5902 5902 5902 5901 5901 5900 5900 5899 5899 5899 5898 5898 5898 5899 5900 5900 5900 5900 5900 5901 5901 5902 5903 5903 5903 5903 5903 5902 5902 5902 5902 5901 5901 5900 5899 5898 5897 5897 5896 5896 5895 5894 5893 5893 5892 5892 5891 5890 5889 5889 5888 5887 5886 5886 5885 5884 5883 5883 5882 5881 5881 5880 5879 5878 5877 5877 5876 5874 5873 5871
5863 5865 5868 5869 5869 5870 5870 5871 5873 5874 5878 5882 5884 5883 5880 5882 5888 5890 5892 5894 5895 5895 5895 5896 5897 5898 5900 5900 5899 5900 5900 5900 5899 5898 5897 5897 5896 5896 5896 5896 5897 5898 5898 5898 5898 5898 5899 5900 5900 5901 5901 5901 5901 5901 5901 5901 5900 5900 5900 5899 5899 5898 5896 5895 5895 5894 5894 5893 5892 5891 5890 5890 5889 5888 5887 5887 5886 5885 5884 5883 5883 5882 5881 5881 5880 5879 5879 5878 5877 5876 5875 5875 5874 5873 5872 5870 5868
5861 5864 5866 5866 5865 5867 5868 5870 5872 5874 5878 5879 5880 5878 5876 5881 5887 5889 5890 5892 5893 5893 5893 5893 5894 5895 5897 5897 5897 5898 5899 5898 5898 5897 5897 5895 5895 5894 5894 5894 5895 5895 5895 5896 5896 5897 5897 5898 5898 5899 5899 5900 5900 5899 5899 5899 5899 5899 5898 5898 5897 5896 5895 5894 5893 5892 5891 5890 5889 5888 5888 5887 5886 5886 5885 5884 5883 5882 5881 5881 5880 5879 5879 5878 5878 5877 5876 5875 5874 5874 5873 5872 5871 5870 5869 5867 5865
5859 5861 5862 5861 5862 5866 5868 5869 5871 5874 5875 5875 5875 5874 5874 5879 5884 5886 5888 5889 5890 5892 5892 5891 5892 5893 5894 5895 5896 5897 5897 5897 5897 5896 5895 5894 5893 5893 5892 5893 5893 5893 5893 5894 5894 5895 5895 5896 5896 5897 5898 5898 5898 5898 5898 5898 5897 5897 5896 5896 5895 5894 5893 5892 5892 5891 5889 5888 5887 5886 5886 5885 5884 5883 5883 5881 5880 5879 5879 5878 5878 5877 5876 5876 5875 5874 5873 5872 5871 5871 5870 5869 5868 5867 5865 5864 5862
5854 5855 5856 5857 5861 5866 5868 5867 5869 5870 5870 5869 5870 5871 5873 5876 5879 5882 5885 5887 5888 5890 5890 5890 5890 5891 5892 5893 5895 5895 5895 5895 5895 5894 5893 5892 5891 5891 5891 5891 5891 5891 5891 5892 5892 5892 5893 5894 5894 5895 5896 5896 5896 5896 5895 5895 5895 5894 5894 5893 5892 5892 5891 5890 5889 5888 5887 5886 5885 5884 5883 5883 5882 5881 5880 5879 5878 5877 5876 5876 5875 5874 5873 5873 5872 5871 5870 5869 5868 5867 5866 5865 5864 5863 5862 5860 5859
5849 5851 5853 5856 5860 5863 5864 5864 5865 5866 5865 5864 5866 5869 5871 5873 5875 5879 5883 5884 5886 5887 5888 5888 5888 5889 5890 5891 5893 5893 5893 5893 5893 5892 5891 5890 5890 5889 5889 5889 5889 5889 5889 5889 5890 5890 5891 5892 5892 5893 5893 5893 5893 5893 5893 5893 5892 5891 5890 5890 5889 5888 5888 5887 5886 5885 5884 5883 5882 5882 5881 5880 5879 5878 5877 5877 5876 5875 5874 5873 5873 5871 5870 5870 5869 5868 5867 5866 5865 5863 5862 5862 5860 5859 5858 5857 5855
5845 5848 5851 5853 5855 5857 5858 5859 5858 5860 5861 5861 5863 5866 5868 5869 5872 5877 5880 5882 5884 5885 5886 5886 5886 5888 5889 5890 5891 5891 5891 5891 5891 5890 5889 5888 5888 5887 5886 5886 5886 5886 5887 5887 5887 5888 5889 5890 5890 5890 5891 5891 5891 5891 5891 5890 5889 5888 5888 5887 5886 5885 5884 5884 5883 5882 5881 5880 5879 5878 5878 5877 5876 5875 5875 5874 5873 5873 5872 5871 5870 5868 5867 5866 5866 5865 5864 5863 5861 5860 5859 5858 5857 5855 5854 5853 5851
5840 5843 5845 5847 5850 5853 5854 5856 5856 5857 5858 5858 5860 5861 5862 5866 5870 5874 5877 5879 5881 5882 5883 5884 5885 5886 5887 5889 5890 5890 5890 5890 5889 5888 5887 5887 5886 5885 5884 5883 5883 5884 5884 5884 5885 5886 5887 5887 5888 5888 5888 5889 5889 5889 5888 5887 5886 5886 5885 5884 5883 5882 5881 5880 5879 5878 5877 5876 5876 5874 5874 5874 5873 5873 5872 5872 5871 5870 5869 5868 5867 5865 5864 5863 5862 5861 5861 5860 5858 5857 5856 5855 5853 5852 5851 5849 5848
5834 5837 5838 5841 5845 5848 5850 5852 5853 5855 5855 5856 5858 5857 5858 5864 5869 5871 5874 5876 5878 5879 5881 5882 5883 5885 5886 5887 5888 5888 5888 5888 5887 5887 5886 5885 5885 5884 5883 5882 5881 5882 5882 5883 5884 5884 5885 5885 5886 5886 5886 5887 5887 5886 5886 5885 5884 5883 5882 5881 5880 5879 5878 5877 5876 5874 5873 5872 5872 5871 5871 5870 5870 5870 5869 5869 5868 5867 5866 5864 5863 5862 5860 5859 5858 5858 5857 5856 5855 5854 5853 5851 5850 5848 5847 5845 5844
5832 5834 5835 5838 5842 5844 5846 5847 5848 5851 5852 5853 5854 5854 5856 5862 5866 5869 5872 5874 5875 5877 5878 5880 5881 5883 5884 5885 5885 5886 5886 5886 5885 5886 5885 5884 5883 5883 5882 5881 5880 5880 5881 5882 5882 5883 5883 5884 5884 5885 5885 5885 5885 5884 5884 5883 5882 5881 5880 5878 5877 5876 5875 5874 5873 5871 5870 5869 5869 5868 5868 5867 5867 5866 5865 5864 5864 5863 5862 5860 5859 5858 5857 5856 5855 5854 5853 5852 5851 5850 5849 5847 5846 5844 5842 5841 5840